Time,TemperatureF,DewpointF,PressureIn,WindDirection,WindDirectionDegrees,WindSpeedMPH,WindSpeedGustMPH,Humidity,HourlyPrecipIn,Conditions,Clouds,dailyrainin,SolarRadiationWatts/m^2,SoftwareType,DateUTC
2013-06-01 00:01:00,54.0,15.0,-100.00,NNE,17,5.0,6.0,21,0.00,,,0.00,0.000000,,2013-06-01 07:01:00,
2013-06-01 00:11:00,54.0,15.0,-100.00,NNE,17,5.0,6.0,21,0.00,,,0.00,0.000000,,2013-06-01 07:11:00,
2013-06-01 00:21:00,54.0,15.0,-100.00,NNE,17,5.0,6.0,21,0.00,,,0.00,0.000000,,2013-06-01 07:21:00,
2013-06-01 00:52:00,52.0,22.0,-100.00,North,2,4.0,13.0,30,0.00,,,0.00,0.000000,,2013-06-01 07:52:00,
2013-06-01 01:02:00,52.0,22.0,-100.00,North,2,4.0,13.0,30,0.00,,,0.00,0.000000,,2013-06-01 08:02:00,
2013-06-01 01:11:00,52.0,22.0,-100.00,North,2,4.0,13.0,30,0.00,,,0.00,0.000000,,2013-06-01 08:11:00,
2013-06-01 01:21:00,52.0,22.0,-100.00,North,2,4.0,13.0,30,0.00,,,0.00,0.000000,,2013-06-01 08:21:00,
2013-06-01 01:52:00,45.0,18.0,-100.00,South,188,2.0,6.0,33,0.00,,,0.00,0.000000,,2013-06-01 08:52:00,
2013-06-01 02:01:00,45.0,18.0,-100.00,South,188,2.0,6.0,33,0.00,,,0.00,0.000000,,2013-06-01 09:01:00,
2013-06-01 02:12:00,45.0,18.0,-100.00,South,188,2.0,6.0,33,0.00,,,0.00,0.000000,,2013-06-01 09:12:00,
2013-06-01 02:21:00,45.0,18.0,-100.00,South,188,2.0,6.0,33,0.00,,,0.00,0.000000,,2013-06-01 09:21:00,
2013-06-01 02:53:00,40.0,17.0,-100.00,South,171,5.0,5.0,39,0.00,,,0.00,0.000000,,2013-06-01 09:53:00,
2013-06-01 03:02:00,40.0,17.0,-100.00,South,171,5.0,5.0,39,0.00,,,0.00,0.000000,,2013-06-01 10:02:00,
2013-06-01 03:12:00,40.0,17.0,-100.00,South,171,5.0,5.0,39,0.00,,,0.00,0.000000,,2013-06-01 10:12:00,
2013-06-01 03:22:00,40.0,17.0,-100.00,South,171,5.0,5.0,39,0.00,,,0.00,0.000000,,2013-06-01 10:22:00,
2013-06-01 03:52:00,38.0,18.0,-100.00,South,173,8.0,10.0,44,0.00,,,0.00,0.000000,,2013-06-01 10:52:00,
2013-06-01 04:02:00,38.0,18.0,-100.00,South,173,8.0,10.0,44,0.00,,,0.00,0.000000,,2013-06-01 11:02:00,
2013-06-01 04:11:00,38.0,18.0,-100.00,South,173,8.0,10.0,44,0.00,,,0.00,0.000000,,2013-06-01 11:11:00,
2013-06-01 04:21:00,38.0,18.0,-100.00,South,173,8.0,10.0,44,0.00,,,0.00,0.000000,,2013-06-01 11:21:00,
2013-06-01 04:52:00,36.0,19.0,-100.00,South,176,7.0,12.0,49,0.00,,,0.00,0.000000,,2013-06-01 11:52:00,
2013-06-01 05:01:00,36.0,19.0,-100.00,South,176,7.0,12.0,49,0.00,,,0.00,0.000000,,2013-06-01 12:01:00,
2013-06-01 05:11:00,36.0,19.0,-100.00,South,176,7.0,12.0,49,0.00,,,0.00,0.000000,,2013-06-01 12:11:00,
2013-06-01 05:21:00,36.0,19.0,-100.00,South,176,7.0,12.0,49,0.00,,,0.00,0.000000,,2013-06-01 12:21:00,
2013-06-01 05:52:00,34.0,20.0,-100.00,South,185,8.0,10.0,55,0.00,,,0.00,0.000000,,2013-06-01 12:52:00,
2013-06-01 06:01:00,34.0,20.0,-100.00,South,185,8.0,10.0,55,0.00,,,0.00,0.000000,,2013-06-01 13:01:00,
2013-06-01 06:11:00,34.0,20.0,-100.00,South,185,8.0,10.0,55,0.00,,,0.00,0.000000,,2013-06-01 13:11:00,
2013-06-01 06:22:00,34.0,20.0,-100.00,South,185,8.0,10.0,55,0.00,,,0.00,0.000000,,2013-06-01 13:22:00,
2013-06-01 06:52:00,32.0,12.0,-100.00,SSW,195,7.0,10.0,42,0.00,,,0.00,0.000000,,2013-06-01 13:52:00,
2013-06-01 07:02:00,32.0,12.0,-100.00,SSW,195,7.0,10.0,42,0.00,,,0.00,0.000000,,2013-06-01 14:02:00,
2013-06-01 07:11:00,32.0,12.0,-100.00,SSW,195,7.0,10.0,42,0.00,,,0.00,0.000000,,2013-06-01 14:11:00,
2013-06-01 07:52:00,40.0,8.0,-100.00,SW,235,2.0,11.0,26,-99.99,,,0.00,12.000000,,2013-06-01 14:52:00,
2013-06-01 08:53:00,52.0,10.0,-100.00,North,11,4.0,8.0,18,-99.99,,,0.00,226.000000,,2013-06-01 15:53:00,
2013-06-01 09:23:00,52.0,10.0,-100.00,North,11,4.0,8.0,18,-99.99,,,0.00,226.000000,,2013-06-01 16:23:00,
2013-06-01 09:52:00,60.0,11.0,-100.00,East,80,2.0,7.0,14,0.00,,,0.00,476.000000,,2013-06-01 16:52:00,
2013-06-01 10:02:00,60.0,11.0,-100.00,East,80,2.0,7.0,14,0.00,,,0.00,476.000000,,2013-06-01 17:02:00,
2013-06-01 10:11:00,60.0,11.0,-100.00,East,80,2.0,7.0,14,0.00,,,0.00,476.000000,,2013-06-01 17:11:00,
2013-06-01 10:22:00,60.0,11.0,-100.00,East,80,2.0,7.0,14,0.00,,,0.00,476.000000,,2013-06-01 17:22:00,
2013-06-01 10:52:00,65.0,11.0,-100.00,SE,129,3.0,9.0,12,0.00,,,0.00,716.000000,,2013-06-01 17:52:00,
2013-06-01 11:01:00,65.0,11.0,-100.00,SE,129,3.0,9.0,12,0.00,,,0.00,716.000000,,2013-06-01 18:01:00,
2013-06-01 11:12:00,65.0,11.0,-100.00,SE,129,3.0,9.0,12,0.00,,,0.00,716.000000,,2013-06-01 18:12:00,
2013-06-01 11:21:00,65.0,11.0,-100.00,SE,129,3.0,9.0,12,0.00,,,0.00,716.000000,,2013-06-01 18:21:00,
2013-06-01 11:52:00,70.0,13.0,-100.00,SE,133,4.0,6.0,11,0.00,,,0.00,933.000000,,2013-06-01 18:52:00,
2013-06-01 12:01:00,70.0,13.0,-100.00,SE,133,4.0,6.0,11,0.00,,,0.00,933.000000,,2013-06-01 19:01:00,
2013-06-01 12:11:00,70.0,13.0,-100.00,SE,133,4.0,6.0,11,0.00,,,0.00,933.000000,,2013-06-01 19:11:00,
2013-06-01 12:21:00,70.0,13.0,-100.00,SE,133,4.0,6.0,11,0.00,,,0.00,933.000000,,2013-06-01 19:21:00,
2013-06-01 13:52:00,75.0,12.0,-100.00,North,352,3.0,12.0,9,0.00,,,0.00,1233.000000,,2013-06-01 20:52:00,
2013-06-01 14:01:00,75.0,12.0,-100.00,North,352,3.0,12.0,9,0.00,,,0.00,1233.000000,,2013-06-01 21:01:00,
2013-06-01 14:11:00,75.0,12.0,-100.00,North,352,3.0,12.0,9,0.00,,,0.00,1233.000000,,2013-06-01 21:11:00,
2013-06-01 14:53:00,79.0,13.0,-100.00,NNW,338,6.0,11.0,8,0.00,,,0.00,1290.000000,,2013-06-01 21:53:00,
2013-06-01 15:03:00,79.0,13.0,-100.00,NNW,338,6.0,11.0,8,0.00,,,0.00,1290.000000,,2013-06-01 22:03:00,
2013-06-01 15:12:00,79.0,13.0,-100.00,NNW,338,6.0,11.0,8,0.00,,,0.00,1290.000000,,2013-06-01 22:12:00,
2013-06-01 15:23:00,79.0,13.0,-100.00,NNW,338,6.0,11.0,8,0.00,,,0.00,1290.000000,,2013-06-01 22:23:00,
2013-06-01 15:53:00,82.0,12.0,-100.00,NE,44,6.0,14.0,7,0.00,,,0.00,1172.000000,,2013-06-01 22:53:00,
2013-06-01 16:02:00,82.0,12.0,-100.00,NE,44,6.0,14.0,7,0.00,,,0.00,1172.000000,,2013-06-01 23:02:00,
2013-06-01 16:11:00,82.0,12.0,-100.00,NE,44,6.0,14.0,7,0.00,,,0.00,1172.000000,,2013-06-01 23:11:00,
2013-06-01 16:52:00,81.0,11.0,-100.00,WNW,283,8.0,14.0,7,0.00,,,0.00,1225.000000,,2013-06-01 23:52:00,
2013-06-01 17:02:00,81.0,11.0,-100.00,WNW,283,8.0,14.0,7,0.00,,,0.00,1225.000000,,2013-06-02 00:02:00,
2013-06-01 17:11:00,81.0,11.0,-100.00,WNW,283,8.0,14.0,7,0.00,,,0.00,1225.000000,,2013-06-02 00:11:00,
2013-06-01 17:21:00,81.0,11.0,-100.00,WNW,283,8.0,14.0,7,0.00,,,0.00,1225.000000,,2013-06-02 00:21:00,
2013-06-01 19:52:00,80.0,16.0,-100.00,SSW,201,6.0,16.0,9,0.00,,,0.00,457.000000,,2013-06-02 02:52:00,
2013-06-01 20:02:00,80.0,16.0,-100.00,SSW,201,6.0,16.0,9,0.00,,,0.00,457.000000,,2013-06-02 03:02:00,
2013-06-01 20:11:00,80.0,16.0,-100.00,SSW,201,6.0,16.0,9,0.00,,,0.00,457.000000,,2013-06-02 03:11:00,
2013-06-01 20:21:00,80.0,16.0,-100.00,SSW,201,6.0,16.0,9,0.00,,,0.00,457.000000,,2013-06-02 03:21:00,
2013-06-01 20:53:00,75.0,26.0,-100.00,South,169,7.0,12.0,16,0.00,,,0.00,169.000000,,2013-06-02 03:53:00,
2013-06-01 21:02:00,75.0,26.0,-100.00,South,169,7.0,12.0,16,0.00,,,0.00,169.000000,,2013-06-02 04:02:00,
2013-06-01 21:13:00,75.0,26.0,-100.00,South,169,7.0,12.0,16,0.00,,,0.00,169.000000,,2013-06-02 04:13:00,
2013-06-01 21:23:00,75.0,26.0,-100.00,South,169,7.0,12.0,16,0.00,,,0.00,169.000000,,2013-06-02 04:23:00,
2013-06-01 21:53:00,64.0,20.0,-100.00,SSW,192,8.0,9.0,18,-99.99,,,0.00,62.000000,,2013-06-02 04:53:00,
2013-06-01 22:02:00,64.0,20.0,-100.00,SSW,192,8.0,9.0,18,-99.99,,,0.00,62.000000,,2013-06-02 05:02:00,
2013-06-01 22:11:00,64.0,20.0,-100.00,SSW,192,8.0,9.0,18,-99.99,,,0.00,62.000000,,2013-06-02 05:11:00,
2013-06-01 22:22:00,64.0,20.0,-100.00,SSW,192,8.0,9.0,18,-99.99,,,0.00,62.000000,,2013-06-02 05:22:00,
2013-06-01 22:52:00,61.0,21.0,-100.00,South,189,9.0,13.0,21,0.00,,,0.00,2.000000,,2013-06-02 05:52:00,
2013-06-01 23:01:00,61.0,21.0,-100.00,South,189,9.0,13.0,21,0.00,,,0.00,2.000000,,2013-06-02 06:01:00,
2013-06-01 23:12:00,61.0,21.0,-100.00,South,189,9.0,13.0,21,0.00,,,0.00,2.000000,,2013-06-02 06:12:00,
2013-06-01 23:21:00,61.0,21.0,-100.00,South,189,9.0,13.0,21,0.00,,,0.00,2.000000,,2013-06-02 06:21:00,
2013-06-01 23:52:00,56.0,19.0,-100.00,ESE,118,6.0,13.0,23,0.00,,,0.00,0.000000,,2013-06-02 06:52:00,